Regional Weather Roundup
Issued by NWS

Home | Current Version | Previous Version | Text Only | Print | Product List | Glossary Off
Versions: 1 2 3 4 5 6 7 8 9 10 11 12 13 14 15 16 17 18 19 20 21 22 23 24 25 26 27 28 29 30 31 32 33 34 35 36 37 38 39 40 41 42 43 44 45 46 47 48 49 50

000
ASUS43 KLSX 231307
RWRMO

WEATHER SUMMARY FOR MISSOURI
NATIONAL WEATHER SERVICE SPRINGFIELD MO
800 AM CDT WED AUG 23 2017

NOTE: "FAIR" INDICATES FEW OR NO CLOUDS BELOW 12,000 FEET WITH NO
       SIGNIFICANT WEATHER AND/OR OBSTRUCTIONS TO VISIBILITY.
       CURRENT SKY AND/OR WEATHER CONDITIONS ARE NOT AVAILABLE FOR
       CHILLICOTHE AND FARMINGTON.

MOZ001>031-035>038-043-044-053-054-231400-
...NORTHERN AND WESTERN MISSOURI...

CITY           SKY/WX    TMP DP  RH WIND       PRES   REMARKS
KANSAS CTY INT MOSUNNY   63  55  75 CALM      30.16S
KANSAS C DTWN  SUNNY     62  59  90 CALM      30.16R
LEE`S SUMMIT   SUNNY     60  58  92 MISG      30.17R
ST JOSEPH      FOG       54  54 100 CALM      30.17R VSB 1/4
CHILLICOTHE      N/A     57  56  96 CALM      30.16S
KIRKSVILLE     SUNNY     61  55  81 CALM      30.15R

$$
MOZ066>068-077>081-088>096-101>105-231400-
...SOUTHWEST MISSOURI...

CITY           SKY/WX    TMP DP  RH WIND       PRES   REMARKS
SPRINGFIELD    MOSUNNY   63  57  81 NE8       30.14R
JOPLIN         MOSUNNY   63  60  90 NE6       30.15R
BRANSON        CLOUDY    66  59  77 N5        30.13S

$$
MOZ032>034-039>042-045>050-055>058-069>072-231400-
...CENTRAL MISSOURI...

CITY           SKY/WX    TMP DP  RH WIND       PRES   REMARKS
COLUMBIA       SUNNY     62  55  77 N5        30.14R
JEFFERSON CITY SUNNY     59  59 100 W3        30.14R
ROLLA          SUNNY     62  57  83 CALM      30.15R
SEDALIA        SUNNY     62  59  90 NW3       30.17R
WHITEMAN AFB   SUNNY     60  60 100 NW2       30.15R
WARRENSBURG    SUNNY     57  54  88 CALM      30.17R
OSAGE BEACH    SUNNY     61  56  83 CALM      30.16R

$$
MOZ051-052-059>065-231400-
...EAST CENTRAL MISSOURI...

CITY           SKY/WX    TMP DP  RH WIND       PRES   REMARKS
ST LOUIS INTL  MOSUNNY   65  57  75 NW3       30.12R
SPIRIT OF STL  SUNNY     62  58  86 SW3       30.11R
ST CHARLES     SUNNY     64  58  80 CALM      30.10R

$$
MOZ072>076-082>087-097>100-106>115-231400-
...SOUTH CENTRAL AND SOUTHEAST MISSOURI...

CITY           SKY/WX    TMP DP  RH WIND       PRES   REMARKS
CAPE GIRARDEAU PTSUNNY   66  60  81 NW3       30.09R
POPLAR BLUFF   PTSUNNY   68  61  78 N7        30.09R
WEST PLAINS    CLOUDY    64  58  80 NE6       30.14R

$$



USA.gov is the U.S. government's official web portal to all federal, state and local government web resources and services.